This demonstration page uses our WeatherBlox Daily Observations layout. Learn more.

Left ArrowRight Arrow

Hourly Observations for May 12, 2017

Temp ( °F °C ) Dew Point ( °F °C ) Humidity (%) Winds ( mph kmh ) Pressure ( in mb ) Visibility ( mi km ) Precip ( " mm )
12:15 am 00:15 Clear 48 8.8 39 4.1 73 73 N 3 6 30.15 1021 10 16 N/A
12:35 am 00:35 Clear 47 8.5 39 4.1 74 74 NNW 5 7 30.15 1021 10 16 N/A
12:55 am 00:55 Clear 47 8.1 40 4.2 77 77 NW 5 7 30.15 1021 10 16 N/A
1:15 am 01:15 Clear 46 8 39 4.1 77 77 NW 5 7 30.15 1021 10 16 N/A
1:35 am 01:35 Clear 46 8 40 4.2 77 77 NW 6 9 30.15 1021 10 16 N/A
1:55 am 01:55 Clear 46 7.7 39 4 78 78 NNW 6 9 30.15 1021 10 16 N/A
2:15 am 02:15 Clear 46 7.7 39 3.7 76 76 NW 5 7 30.15 1021 10 16 N/A
2:35 am 02:35 Clear 45 7.2 39 4 80 80 NW 6 9 30.15 1021 10 16 N/A
2:55 am 02:55 Clear 45 7.2 39 3.8 79 79 NW 6 9 30.15 1021 10 16 N/A
3:15 am 03:15 Clear 44 6.7 38 3.6 81 81 NNW 6 9 30.18 1022 10 16 N/A
3:35 am 03:35 Clear 44 6.7 38 3.5 80 80 NW 6 9 30.18 1022 10 16 N/A
3:55 am 03:55 Clear 44 6.6 38 3.3 80 80 NNW 3 6 30.18 1022 10 16 N/A
4:15 am 04:15 Clear 45 7.1 37 3 75 75 NNW 3 6 30.15 1021 10 16 N/A
4:35 am 04:35 Clear 45 7.2 37 3 75 75 N N/A 30.15 1021 10 16 N/A
4:55 am 04:55 Clear 44 6.9 38 3.1 77 77 NNW 3 6 30.18 1022 10 16 N/A
5:15 am 05:15 Clear 43 6.3 38 3.1 80 80 NNW 3 6 30.18 1022 10 16 N/A
5:35 am 05:35 Clear 43 6 37 2.6 79 79 NNW 3 6 30.18 1022 10 16 N/A
5:55 am 05:55 Clear 43 6.1 37 2.8 80 80 NW 5 7 30.18 1022 10 16 N/A
6:15 am 06:15 Clear 43 6.2 37 2.8 79 79 NW 3 6 30.18 1022 10 16 N/A
6:35 am 06:35 Sunny 42 5.5 36 2.3 80 80 NW 6 9 30.18 1022 10 16 N/A
6:55 am 06:55 Sunny 44 6.5 37 2.7 77 77 NNW 6 9 30.18 1022 10 16 N/A
7:15 am 07:15 Sunny 44 6.7 38 3.3 79 79 NNW 5 7 30.18 1022 10 16 N/A
7:35 am 07:35 Sunny 46 7.9 40 4.5 79 79 NW 5 7 30.15 1021 10 16 N/A
7:55 am 07:55 Sunny 48 9.1 42 5.3 77 77 NW 5 7 30.15 1021 10 16 N/A
8:15 am 08:15 Sunny 50 10.2 43 6 75 75 NW 5 7 30.15 1021 10 16 N/A
8:35 am 08:35 Sunny 53 11.5 43 6 69 69 NW 5 7 30.12 1020 10 16 N/A
8:55 am 08:55 Sunny 55 12.9 44 6.4 65 65 NW 7 11 30.12 1020 10 16 N/A
9:15 am 09:15 Sunny 57 13.8 43 6.2 60 60 NW 5 7 30.09 1019 10 16 N/A
9:35 am 09:35 Sunny 59 14.9 42 5.5 54 54 NNW 7 11 30.09 1019 10 16 N/A
9:55 am 09:55 Sunny 60 15.8 41 5.2 50 50 NW 5 7 30.09 1019 10 16 N/A
10:15 am 10:15 Sunny 62 16.5 40 4.2 44 44 WNW 6 9 30.09 1019 10 16 N/A
10:35 am 10:35 Sunny 63 17.4 39 4 41 41 NNW 3 6 30.06 1018 10 16 N/A
10:55 am 10:55 Sunny 64 17.8 36 2.3 36 36 NNW 3 6 30.06 1018 10 16 N/A
11:15 am 11:15 Sunny 65 18.3 37 2.5 35 35 N N/A 30.06 1018 10 16 N/A
11:35 am 11:35 Sunny 66 18.7 36 2.2 33 33 E 3 6 30.06 1018 10 16 N/A
11:55 am 11:55 Sunny 67 19.4 36 2.4 32 32 SE 3 6 30.06 1018 10 16 N/A
12:15 pm 12:15 Sunny 67 19.6 36 2.3 32 32 SSE 5 7 30.06 1018 10 16 N/A
12:35 pm 12:35 Sunny 68 19.8 36 2.3 31 31 N N/A 30.06 1018 10 16 N/A
12:55 pm 12:55 Sunny 69 20.5 37 2.9 31 31 N N/A 30.06 1018 10 16 N/A
1:15 pm 13:15 Sunny 68 20 35 1.4 29 29 ESE 3 6 30.03 1017 10 16 N/A
1:35 pm 13:35 Sunny 69 20.7 36 2.4 30 30 N N/A 30.00 1016 10 16 N/A
1:55 pm 13:55 Sunny 69 20.8 36 2.1 29 29 N N/A 30.00 1016 10 16 N/A
2:15 pm 14:15 Sunny 70 21.2 37 2.5 29 29 ESE 8 13 30.00 1016 10 16 N/A
2:35 pm 14:35 Sunny 70 21.2 35 1.8 28 28 SSE 5 7 30.00 1016 10 16 N/A
2:55 pm 14:55 Sunny 71 21.5 36 2.2 28 28 E 9 15 29.97 1015 10 16 N/A
3:15 pm 15:15 Sunny 71 21.8 36 2.4 28 28 E 9 15 29.97 1015 10 16 N/A
3:35 pm 15:35 Sunny 71 21.6 34 1.3 26 26 SSW 3 6 29.97 1015 10 16 N/A
3:55 pm 15:55 Sunny 72 22 35 1.4 26 26 SSE 5 7 29.97 1015 10 16 N/A
4:15 pm 16:15 Sunny 72 22.1 36 2.1 27 27 SSE 3 6 29.97 1015 10 16 N/A
4:35 pm 16:35 Sunny 72 22.2 37 2.9 28 28 SE 5 7 29.94 1014 10 16 N/A
4:55 pm 16:55 Sunny 72 22.2 35 1.6 26 26 SSE 3 6 29.94 1014 10 16 N/A
5:15 pm 17:15 Sunny 72 22.3 34 1.3 25 25 SSE 5 7 29.94 1014 10 16 N/A
5:35 pm 17:35 Sunny 73 22.5 34 1.1 24 24 ESE 7 11 29.94 1014 10 16 N/A
5:55 pm 17:55 Sunny 72 22.2 34 1.2 25 25 SE 6 9 29.94 1014 10 16 N/A
6:15 pm 18:15 Sunny 72 22.4 33 0.8 24 24 S 3 6 29.91 1013 10 16 N/A
6:35 pm 18:35 Sunny 72 22 35 1.7 26 26 E 6 9 29.91 1013 10 16 N/A
6:55 pm 18:55 Sunny 72 22 35 1.8 26 26 SE 8 13 29.91 1013 10 16 N/A
7:15 pm 19:15 Sunny 71 21.6 36 2.1 28 28 SE 13 20 29.91 1013 10 16 N/A
7:35 pm 19:35 Sunny 70 21.3 36 2.1 28 28 SE 10 17 29.91 1013 10 16 N/A
7:55 pm 19:55 Sunny 69 20.6 37 2.6 31 31 SSE 10 17 29.91 1013 10 16 N/A
8:15 pm 20:15 Sunny 68 20 37 2.6 32 32 SSE 9 15 29.91 1013 10 16 N/A
8:35 pm 20:35 Sunny 66 18.8 37 3 35 35 SSE 8 13 29.94 1014 10 16 N/A
8:55 pm 20:55 Clear 64 17.7 38 3.2 38 38 SSE 8 13 29.94 1014 10 16 N/A
9:15 pm 21:15 Clear 62 16.6 38 3.5 42 42 SSE 7 11 29.94 1014 10 16 N/A
9:35 pm 21:35 Clear 59 15.1 40 4.2 48 48 SSE 7 11 29.97 1015 10 16 N/A
9:55 pm 21:55 Clear 58 14.6 39 4.1 50 50 SSE 8 13 29.97 1015 10 16 N/A
10:15 pm 22:15 Clear 57 13.9 40 4.2 52 52 SSE 7 11 29.97 1015 10 16 N/A
10:35 pm 22:35 Clear 56 13.1 40 4.6 57 57 SSE 7 11 30.00 1016 10 16 N/A
10:55 pm 22:55 Clear 56 13.4 40 4.6 56 56 SSE 9 15 30.00 1016 10 16 N/A
11:15 pm 23:15 Clear 55 12.9 40 4.5 57 57 SSE 6 9 29.97 1015 10 16 N/A
11:35 pm 23:35 Clear 54 12.4 40 4.5 59 59 S 6 9 30.03 1017 10 16 N/A
11:55 pm 23:55 Clear 54 12.1 40 4.7 61 61 S 6 9 30.00 1016 10 16 N/A

Powered by AerisWeather